This demonstration page uses our WeatherBlox Daily Observations layout. Learn more.

Left ArrowRight Arrow

44.89941, -97.11507

Hourly Observations for June 23, 2021

Temp ( °F °C ) Dew Point ( °F °C ) Humidity (%) Winds ( mph kmh ) Pressure ( in mb ) Visibility ( mi km ) Precip ( " mm )
12:53 am 00:53 Clear 62 16.7 43 6.1 50 50 SE 9 15 29.76 1008 10 16 0.00 0.00
1:53 am 01:53 Clear 59 15 43 6.1 56 56 SSE 7 11 29.75 1008 10 16 0.00 0.00
2:53 am 02:53 Clear 59 15 44 6.7 58 58 SSE 8 13 29.75 1007 10 16 0.00 0.00
3:53 am 03:53 Clear 58 14.4 45 7.2 62 62 SSE 9 15 29.74 1007 10 16 0.00 0.00
4:53 am 04:53 Clear 58 14.4 48 8.9 70 70 SSE 9 15 29.74 1007 10 16 0.00 0.00
5:53 am 05:53 Sunny 58 14.4 50 10 75 75 SSE 10 17 29.74 1007 10 16 0.00 0.00
6:53 am 06:53 Sunny 58 14.4 53 11.7 84 84 S 10 17 29.74 1007 10 16 0.00 0.00
7:53 am 07:53 Sunny 63 17.2 57 13.9 81 81 S 13 20 29.73 1007 10 16 0.00 0.00
8:53 am 08:53 Sunny 69 20.6 60 15.6 73 73 SSE 9 15 29.72 1007 10 16 0.00 0.00
9:53 am 09:53 Sunny 74 23.3 60 15.6 62 62 SSE 9 15 29.71 1006 10 16 0.00 0.00
10:53 am 10:53 Sunny 80 26.7 59 15 49 49 SSE 13 20 29.70 1006 10 16 0.00 0.00
11:53 am 11:53 Sunny 83 28.3 56 13.3 40 40 S 12 19 29.69 1006 10 16 0.00 0.00
12:53 pm 12:53 Sunny 86 30 55 12.8 35 35 S 13 20 29.67 1005 10 16 0.00 0.00
1:53 pm 13:53 Sunny 89 31.7 57 13.9 34 34 SSE 12 19 29.67 1005 10 16 0.00 0.00
2:53 pm 14:53 Sunny 92 33.3 53 11.7 27 27 S 12 19 29.65 1004 10 16 0.00 0.00
3:53 pm 15:53 Sunny 93 33.9 55 12.8 28 28 S 18 30 29.64 1004 10 16 0.00 0.00
4:53 pm 16:53 Sunny 93 33.9 58 14.4 31 31 SW 14 22 29.63 1004 10 16 0.00 0.00
5:53 pm 17:53 Sunny 91 32.8 61 16.1 37 37 S 10 17 29.63 1003 10 16 0.00 0.00
6:53 pm 18:53 Sunny 87 30.6 66 18.9 50 50 S 7 11 29.63 1003 10 16 0.00 0.00
7:53 pm 19:53 Sunny 88 31.1 63 17.2 43 43 SSE 8 13 29.60 1002 10 16 0.00 0.00
8:53 pm 20:53 Sunny 83 28.3 65 18.3 55 55 S 6 9 29.61 1003 10 16 0.00 0.00
9:53 pm 21:53 Clear 81 27.2 65 18.3 58 58 SSW 7 11 29.62 1003 10 16 0.00 0.00
10:53 pm 22:53 Clear 83 28.3 67 19.4 59 59 SSW 15 24 29.63 1004 10 16 0.00 0.00
11:53 pm 23:53 Clear 81 27.2 66 18.9 61 61 SSW 13 20 29.63 1004 10 16 0.00 0.00

Powered by AerisWeather